This demonstration page uses our WeatherBlox Daily Observations layout. Learn more.

Left ArrowRight Arrow

Hourly Observations for March 7, 2022

Temp ( °F °C ) Dew Point ( °F °C ) Humidity (%) Winds ( mph kmh ) Pressure ( in mb ) Visibility ( mi km ) Precip ( " mm )
12:53 am 00:53 Clear 21 -6.1 15 -9.4 78 78 SW 16 26 30.27 1025 10 16 0.00 0.00
1:53 am 01:53 Clear 20 -6.7 14 -10 78 78 SW 13 20 30.24 1024 10 16 0.00 0.00
2:53 am 02:53 Clear 21 -6.1 13 -10.6 71 71 SW 16 26 30.23 1024 10 16 0.00 0.00
3:53 am 03:53 Clear 20 -6.7 12 -11.1 71 71 SW 18 30 30.21 1023 10 16 0.00 0.00
4:53 am 04:53 Clear 22 -5.6 13 -10.6 68 68 SW 17 28 30.19 1023 10 16 0.00 0.00
5:53 am 05:53 Clear 22 -5.6 13 -10.6 68 68 SW 22 35 30.17 1022 10 16 0.00 0.00
6:53 am 06:53 Sunny 24 -4.4 14 -10 65 65 SW 25 41 30.16 1021 10 16 0.00 0.00
7:53 am 07:53 Sunny 25 -3.9 15 -9.4 66 66 SW 28 44 30.15 1021 10 16 0.00 0.00
8:53 am 08:53 Mostly Cloudy 28 -2.2 16 -8.9 60 60 SW 29 46 30.14 1021 10 16 0.00 0.00
9:53 am 09:53 Cloudy 31 -0.6 18 -7.8 59 59 SW 24 39 30.13 1020 10 16 0.00 0.00
10:53 am 10:53 Cloudy 34 1.1 21 -6.1 59 59 SW 25 41 30.12 1020 10 16 0.00 0.00
11:53 am 11:53 Cloudy 36 2.2 23 -5 59 59 WSW 18 30 30.11 1020 10 16 0.00 0.00
12:53 pm 12:53 Mostly Cloudy 37 2.8 24 -4.4 59 59 SW 23 37 30.10 1019 10 16 0.00 0.00
1:53 pm 13:53 Cloudy 39 3.9 26 -3.3 60 60 WSW 18 30 30.09 1019 10 16 0.00 0.00
2:46 pm 14:46 Cloudy 38 3.3 32 0 79 79 NW 16 26 30.09 1019 10 16 0.00 0.00
2:53 pm 14:53 Cloudy 37 2.8 32 0 82 82 NW 18 30 30.11 1020 10 16 0.00 0.00
3:04 pm 15:04 Cloudy with Light Rain 36 2 34 1 93 93 NW 21 33 30.10 1019 9 14 0.00 0.00
3:18 pm 15:18 Windy with Snow Likely 34 1.1 33 0.6 97 97 NW 20 31 30.12 1020 7 11 0.01 0.25
3:53 pm 15:53 Cloudy with Light Snow 33 0.6 32 0 96 96 NW 15 24 30.13 1020 3 4 0.02 0.51
4:06 pm 16:06 Cloudy with Light Snow 33 0.6 32 0 96 96 NW 14 22 30.13 1020 1 2 0.00 0.00
4:17 pm 16:17 Cloudy with Light Snow 33 0.6 32 0 96 96 NNW 14 22 30.14 1021 1 2 0.01 0.25
4:28 pm 16:28 Cloudy with Snow 34 1 32 0 93 93 NNW 13 20 30.14 1021 1 1 0.00 0.00
4:42 pm 16:42 Cloudy with Light Snow 33 0.6 31 -0.6 92 92 NNW 13 20 30.15 1021 1 1 0.03 0.76
4:51 pm 16:51 Cloudy with Light Snow 34 1 32 0 93 93 NNW 14 22 30.15 1021 1 2 0.04 1.02
4:53 pm 16:53 Cloudy with Light Snow 33 0.6 31 -0.6 92 92 NNW 12 19 30.16 1021 1 2 0.04 1.02
5:11 pm 17:11 Cloudy with Light Snow 33 0.6 32 0 96 96 NW 8 13 30.15 1021 2 3 0.00 0.00
5:15 pm 17:15 Cloudy with Light Snow 33 0.6 32 0 96 96 NNW 10 17 30.16 1021 4 6 0.00 0.00
5:31 pm 17:31 Cloudy with Light Snow 33 0.6 31 -0.6 92 92 NNW 10 17 30.16 1021 3 5 0.00 0.00
5:36 pm 17:36 Cloudy with Light Snow 33 0.6 31 -0.6 92 92 NNW 10 17 30.16 1021 2 3 0.00 0.00
5:41 pm 17:41 Cloudy with Light Snow 32 0 31 -0.6 96 96 NW 14 22 30.18 1022 1 1 0.00 0.00
5:47 pm 17:47 Cloudy with Snow 32 0 30 -1 93 93 NNW 17 28 30.18 1022 1 1 0.01 0.25
5:53 pm 17:53 Cloudy with Light Snow 32 0 31 -0.6 96 96 NNW 10 17 30.18 1022 1 1 0.02 0.51
5:58 pm 17:58 Cloudy with Light Snow 32 0 31 -0.6 96 96 NW 7 11 30.18 1022 2 2 0.00 0.00
6:00 pm 18:00 Cloudy with Light Snow 32 0 30 -1 93 93 NW 8 13 30.18 1022 4 6 0.00 0.00
6:14 pm 18:14 Cloudy 33 0.6 31 -0.6 92 92 NW 9 15 30.17 1022 10 16 0.00 0.00
6:53 pm 18:53 Cloudy 30 -1.1 24 -4.4 79 79 N 20 31 30.21 1023 9 14 0.00 0.00
7:53 pm 19:53 Mostly Cloudy 27 -2.8 20 -6.7 75 75 N 16 26 30.26 1025 10 16 0.00 0.00
8:53 pm 20:53 Mostly Cloudy 25 -3.9 18 -7.8 75 75 N 9 15 30.29 1026 10 16 0.00 0.00
9:53 pm 21:53 Cloudy 25 -3.9 19 -7.2 78 78 WNW 10 17 30.30 1026 10 16 0.00 0.00
10:15 pm 22:15 Cloudy with Light Snow 25 -3.9 19 -7.2 78 78 NNW 15 24 30.36 1028 8 13 0.00 0.00
10:34 pm 22:34 Mostly Cloudy 24 -4.4 18 -7.8 77 77 NNW 13 20 30.37 1028 10 16 0.00 0.00
10:53 pm 22:53 Mostly Clear 23 -5 16 -8.9 74 74 NNW 12 19 30.32 1027 10 16 0.00 0.00
11:53 pm 23:53 Mostly Cloudy 23 -5 15 -9.4 72 72 NNW 9 15 30.32 1027 10 16 0.00 0.00

Powered by AerisWeather